Regional Weather Roundup
Issued by NWS

Home | Current Version | Previous Version | Graphics & Text | Print | Product List | Glossary On
Versions: 1 2 3 4 5 6 7 8 9 10 11 12 13 14 15 16 17 18 19 20 21 22 23 24 25 26 27 28 29 30 31 32 33 34 35 36 37 38 39 40 41 42 43 44 45 46 47 48 49 50
000
ASUS43 KOAX 051002
RWRNE

WEATHER ROUNDUP FOR NEBRASKA
NATIONAL WEATHER SERVICE OMAHA NE
400 AM CST MON DEC 05 2016

NOTES: SATELLITE DATA IS BEING USED TO AUGMENT CLOUD COVER ABOVE
       12000 FEET.
       "FAIR" INDICATES FEW OR NO CLOUDS BELOW 12,000 FEET WITH NO
       SIGNIFICANT WEATHER AND/OR OBSTRUCTIONS TO VISIBILITY.

  * THESE STATIONS DO NOT REPORT WEATHER SUCH AS RAIN...SNOW OR FOG.

NEZ001>004-019>022-054>056-051100-
NEBRASKA PANHANDLE

CITY           SKY/WX    TMP DP  RH WIND       PRES   REMARKS
SCOTTSBLUFF    CLOUDY    40  20  44 NW3       29.57F
ALLIANCE       CLOUDY    39  20  46 S7        29.56F WCI  34
CHADRON        CLOUDY    44  22  41 SW12      29.52F
KIMBALL        CLOUDY    30  20  66 SW6       29.61F WCI  24
SIDNEY         CLOUDY    33  16  49 SW12      29.61F WCI  24
$$

NEZ057>060-069>072-079>082-051100-
SOUTHWEST NEBRASKA

CITY           SKY/WX    TMP DP  RH WIND       PRES   REMARKS
NORTH PLATTE   CLOUDY    32  21  64 CALM      29.67S
IMPERIAL       CLOUDY    30  19  63 N5        29.64F WCI  25
LEXINGTON      CLOUDY    37  21  52 CALM      29.69F
MCCOOK         CLOUDY    34  19  54 SW3       29.68F
OGALLALA       CLOUDY    37  20  49 CALM      29.64S
$$

NEZ005>010-023>029-035>040-094-051100-
NORTH CENTRAL NEBRASKA

CITY           SKY/WX    TMP DP  RH WIND       PRES   REMARKS
VALENTINE      PTCLDY    34  18  52 VRB3      29.57F
AINSWORTH      CLOUDY    37  20  51 SW9       29.58F WCI  30
BROKEN BOW     CLOUDY    35  21  56 S9        29.65F WCI  28
O`NEILL        CLOUDY    38  22  52 SW12      29.62F WCI  30
ORD            CLOUDY    37  20  50 S7        29.65F WCI  32
THEDFORD       CLOUDY    41  21  44 CALM      29.60F
$$

NEZ041-046>049-061>064-073>077-083>087-051100-
SOUTH CENTRAL NEBRASKA

CITY           SKY/WX    TMP DP  RH WIND       PRES   REMARKS
GRAND ISLAND   PTCLDY    38  26  62 S18       29.71F WCI  28
AURORA         PTCLDY    35  28  75 S13       29.73F WCI  26
HASTINGS       MOCLDY    37  26  64 S9        29.74F WCI  30
HEBRON         PTCLDY    36  28  72 S13       29.79F WCI  27
HOLDREGE       CLOUDY    36  23  61 S10       29.70F WCI  28
KEARNEY *      CLOUDY    36  21  55 S13       29.70F WCI  27
YORK           PTCLDY    34  28  80 S15       29.76F WCI  24
$$

NEZ011>018-030>034-042>045-051100-
NORTHEAST NEBRASKA

CITY           SKY/WX    TMP DP  RH WIND       PRES   REMARKS
NORFOLK        CLEAR     36  26  67 S23G31    29.68F WCI  24
ALBION         CLOUDY    34  26  73 S7        29.70F WCI  28
BLAIR          PTCLDY    34  31  89 S8        29.79F WCI  27
FREMONT        CLOUDY    34  29  82 S8        29.78F WCI  28
TEKAMAH        CLOUDY    31  28  89 SE10      29.79F WCI  22
WAYNE          PTCLDY    34  29  83 S9        29.70F WCI  27
$$

NEZ050>053-065>068-078-088>093-051100-
SOUTHEAST NEBRASKA

CITY           SKY/WX    TMP DP  RH WIND       PRES   REMARKS
LINCOLN        PTCLDY    34  30  85 S8        29.81F WCI  27
OMAHA EPPLEY   CLOUDY    32  28  85 SE8       29.83F WCI  25
BEATRICE       CLOUDY    33  30  88 S8        29.82F WCI  26
FALLS CITY     CLEAR     35  31  85 S7        29.87F WCI  29
NEBRASKA CITY  PTCLDY    35  31  86 S10       29.83F WCI  27
PLATTSMOUTH    CLOUDY    35  29  82 S12       29.82F WCI  26
$$

NEZ044-045-051>053-067-051100-
OMAHA AREA

CITY           SKY/WX    TMP DP  RH WIND       PRES   REMARKS
OMAHA EPPLEY   CLOUDY    32  28  85 SE8       29.83F WCI  25
BLAIR          PTCLDY    34  31  89 S8        29.79F WCI  27
FREMONT        CLOUDY    34  29  82 S8        29.78F WCI  28
MILLARD        PTCLDY    32  29  92 SE5       29.81F WCI  27
OFFUTT AFB     PTCLDY    31  31 100 E7        29.82F WCI  24
PLATTSMOUTH    CLOUDY    35  29  82 S12       29.82F WCI  26
WAHOO          FAIR      31  28  88 S8        29.78F WCI  24
$$



USA.gov is the U.S. government's official web portal to all federal, state and local government web resources and services.